This is the latest recevied weather packets stored in our database for station/object K1RFS. If no packets are shown the sender has not sent any weather packets the latest 1 day(s).
| Time | Temp. | Humidity | Pressure | Rain* | Wind** | Luminosity | Snow |
|---|---|---|---|---|---|---|---|
| 1778036060 | 11.67° C | 54% | 995.2 hPa | 0 mm | 0 m/s | 0 W/m² | - |
| 1778035756 | 11.67° C | 53% | 995 hPa | 0 mm | 0 m/s | 0 W/m² | - |
| 1778035454 | 12.22° C | 53% | 995 hPa | 0 mm | 0 m/s | 0 W/m² | - |
| 1778035150 | 12.22° C | 53% | 995.1 hPa | 0 mm | 0.45 m/s, 182° | 1 W/m² | - |
| 1778034847 | 12.22° C | 52% | 994.9 hPa | 0 mm | 0.45 m/s, 185° | 1 W/m² | - |
| 1778034543 | 12.78° C | 52% | 994.8 hPa | 0 mm | 0.45 m/s, 182° | 2 W/m² | - |
| 1778034241 | 12.78° C | 51% | 994.8 hPa | 0 mm | 0 m/s | 4 W/m² | - |
| 1778033939 | 12.78° C | 51% | 994.5 hPa | 0 mm | 0 m/s | 5 W/m² | - |
| 1778033635 | 12.78° C | 50% | 994.5 hPa | 0 mm | 0.45 m/s, 175° | 8 W/m² | - |
| 1778033332 | 13.33° C | 50% | 994.5 hPa | 0 mm | 0.45 m/s, 173° | 10 W/m² | - |
| 1778033030 | 13.89° C | 48% | 994.5 hPa | 0 mm | 0.89 m/s, 188° | 19 W/m² | - |
| 1778032727 | 13.89° C | 48% | 994.4 hPa | 0 mm | 0.45 m/s, 191° | 31 W/m² | - |
| 1778032425 | 13.89° C | 48% | 994.8 hPa | 0 mm | 0 m/s | 38 W/m² | - |
| 1778032121 | 13.89° C | 47% | 994.6 hPa | 0 mm | 0.45 m/s, 194° | 47 W/m² | - |
| 1778031818 | 14.44° C | 46% | 994.6 hPa | 0 mm | 0.45 m/s, 196° | 56 W/m² | - |
| 1778031514 | 14.44° C | 46% | 994.5 hPa | 0 mm | 0.45 m/s, 179° | 64 W/m² | - |
| 1778031212 | 15° C | 45% | 994.8 hPa | 0 mm | 0.45 m/s, 185° | 73 W/m² | - |
| 1778030909 | 15° C | 44% | 994.6 hPa | 0 mm | 0 m/s | 83 W/m² | - |
| 1778030606 | 15° C | 45% | 994.5 hPa | 0 mm | 0.89 m/s, 219° | 92 W/m² | - |
| 1778030303 | 15° C | 45% | 994.5 hPa | 0 mm | 0.89 m/s, 191° | 101 W/m² | - |
| 1778029999 | 15.56° C | 44% | 994.5 hPa | 0 mm | 0 m/s | 110 W/m² | - |
| 1778029697 | 15.56° C | 44% | 994.9 hPa | 0 mm | 0 m/s | 120 W/m² | - |
| 1778029395 | 15.56° C | 45% | 994.6 hPa | 0 mm | 0.45 m/s, 188° | 130 W/m² | - |
| 1778029092 | 16.11° C | 44% | 994.8 hPa | 0 mm | 0.89 m/s, 183° | 139 W/m² | - |
| 1778028788 | 16.67° C | 43% | 994.6 hPa | 0 mm | 0.45 m/s, 187° | 146 W/m² | - |
* Rain latest hour (hover to see other rain measurements)
** Current wind speed in m/s (hover to see current wind gust speed)